sat.trackr.live / text

‹ back to catalog

STARLINK-3931

NORAD 52548 · 2022-051R

PAYLOAD ACTIVE UNKNOWN

§ Identity

Operator
Country
US
Launch date
2022-05-13
Launch site
AFWTR
Launch vehicle
Mass (kg)
RCS (m²)

Purposes: comms

External: N2YO · Heavens-Above · Gunter

§ Orbital elements

Epoch: 2026-09-19T19:08:11.712192Z

Period
93.90 min
Inclination
53.1601°
Eccentricity
0.0001165
Mean motion
15.33538422 rev/d
Perigee alt
464.5 km
Apogee alt
466.1 km
Semi-major
6,843.4 km
B*
8.8992e-5
RAAN
325.0534°
Arg perigee
83.0432°
Mean anomaly
277.0702°
Rev number
24,092

§ Raw data

STARLINK-39311 52548U 22051R   26262.79735778  .00002554  00000+0  88992-4 0  99902 52548  53.1601 325.0534 0001165  83.0432 277.0702 15.33538422240925

JSON: /api/v1/satellites/52548 · /tle

For live sub-satellite position, see the globe view (requires WebGL).

§ Visibility from observer

Set your observer location to see the next 7 days of passes ≥ 10°. The values pass through the URL so the page stays shareable.

No JS? Fill the form by hand. The geolocation button needs JavaScript.